RH
47 75 73 75 86 93 86 87 96 98 100 96 96 96 96 98 96 54 37 15 13 15 16 16 14 18 18 17 15 17 27 37 49 53 60 29 18 16 19 15 19 24 15 13
37 60 75 76 74 88 94 96 96 97 94 91 97 97 94 97 96 70 60 47 33 16 14 17 17 16 20 19 16 14 19 27 37 57 47 54 37 29 29 36 30 22 22 17
23 43 63 77 78 80 91 99 96 96 97 98 97 93 94 98 97 83 65 74 62 36 14 15 18 18 18 21 21 16 13 15 25 29 63 72 62 64 30 32 34 32 22 21
12 24 41 62 81 83 86 84 86 85 84 97 95 95 95 96 97 94 80 72 87 43 16 11 12 16 19 19 20 23 18 16 13 22 28 63 66 60 44 32 29 27 22 14
9 11 25 44 58 92 96 82 83 77 92 73 95 95 95 97 97 98 92 59 79 84 54 34 22 12 12 16 17 19 20 20 18 15 26 44 58 62 47 35 36 30 22 12
12 9 16 24 39 59 91 89 80 77 78 68 87 86 90 89 96 96 78 73 57 63 78 68 64 44 18 14 14 14 15 16 18 19 25 33 42 60 75 61 44 26 26 23
22 11 11 16 22 36 64 86 84 84 99 100 96 86 70 96 96 90 94 92 91 87 58 54 67 73 71 30 17 13 12 14 16 19 21 23 35 52 68 75 70 40 40 41
30 18 10 12 16 20 34 67 91 89 100 100 66 68 72 74 79 81 87 83 73 75 77 61 66 90 90 52 26 38 28 16 12 18 21 22 25 42 55 71 76 72 51 53
41 34 17 11 16 15 20 43 71 95 95 100 88 62 66 70 69 70 57 59 89 95 86 58 67 82 83 82 87 95 99 83 26 18 14 21 28 34 32 67 80 79 87 68
44 41 25 14 13 18 19 23 75 63 100 97 98 94 71 65 72 59 49 83 97 97 81 69 57 75 78 96 99 96 95 89 73 30 26 37 33 38 34 37 54 69 69 78
47 44 47 22 12 14 18 17 22 83 89 86 90 98 61 60 60 53 41 86 95 100 94 96 93 60 66 89 98 97 97 96 82 69 48 52 59 35 39 38 39 43 55 62
46 76 89 31 23 13 13 19 17 28 80 90 95 97 74 24 29 33 44 85 92 97 96 93 96 97 91 73 87 93 97 96 98 92 84 94 86 81 59 44 39 44 60 71
65 61 100 74 33 21 16 12 28 70 75 91 90 81 77 23 21 37 41 83 94 95 91 92 88 91 97 96 95 96 99 97 98 90 86 81 91 100 94 79 45 36 40 60
82 83 97 94 66 63 22 15 12 16 74 79 92 95 90 37 19 39 35 57 90 95 91 91 92 89 86 94 97 96 99 98 96 98 97 99 87 97 95 94 86 40 32 36
96 72 94 81 89 63 44 24 18 14 56 84 92 95 95 47 19 34 45 45 60 92 86 92 93 92 90 80 86 95 94 96 96 94 95 96 96 85 86 86 97 93 30 29
98 93 63 60 68 70 60 42 28 24 17 50 61 97 60 25 23 20 32 46 54 82 95 87 77 67 66 74 74 76 82 66 77 72 81 95 97 94 94 86 83 92 46 16
92 72 98 84 70 69 62 55 50 34 32 44 42 47 19 22 36 29 19 24 41 56 78 74 71 66 78 82 77 69 62 65 70 69 67 69 90 94 63 78 94 96 94 84
97 84 79 98 87 81 97 72 49 46 42 38 30 29 23 21 22 24 26 27 21 26 38 48 53 55 51 52 50 53 60 73 80 71 63 80 87 87 92 49 29 48 62 94
75 75 78 94 97 96 98 71 61 53 51 45 42 40 35 29 24 22 25 23 22 20 20 26 30 33 28 26 42 40 56 65 71 70 73 66 78 60 38 64 72 25 21 19
71 86 70 78 98 100 90 78 76 76 78 53 47 44 48 42 47 29 28 27 22 19 18 16 16 25 35 25 29 30 43 50 66 63 60 66 76 61 46 27 26 30 22 17
98 92 66 82 74 67 55 60 74 81 83 53 62 59 50 56 53 60 46 36 33 29 28 26 22 17 19 23 39 48 56 47 58 70 70 66 66 59 47 36 24 23 32 31
62 76 71 68 69 58 46 41 47 51 48 42 40 45 52 58 65 67 62 60 46 38 42 36 29 26 22 20 23 48 64 67 77 72 73 78 78 66 58 50 47 41 38 35
25 34 42 41 38 38 36 30 28 28 27 29 28 30 41 46 46 47 50 55 64 68 65 64 54 44 44 38 29 24 40 58 62 67 64 82 81 59 64 64 55 42 41 34
12 20 21 22 22 21 19 20 22 27 33 37 41 44 43 38 40 44 47 47 47 54 63 74 73 63 60 68 65 60 46 36 38 58 64 61 58 66 67 65 55 42 34 31
11 8 7 6 6 5 4 4 4 5 7 11 16 21 24 29 34 38 42 44 51 53 56 53 54 61 63 56 61 67 66 63 62 72 96 98 84 84 66 51 53 49 40 35
34 29 21 11 9 9 11 16 17 16 17 16 11 6 5 6 8 13 24 40 47 53 60 66 69 73 77 81 69 81 97 96 96 89 83 95 98 99 94 71 51 54 50 54
Wind_Speed
42 39 31 27 30 28 32 29 23 22 26 13 17 7 28 25 22 21 18 19 19 17 17 16 15 14 12 11 11 10 8 8 10 10 10 9 10 11 12 12 11 11 11 9
41 40 34 37 31 28 29 15 21 24 20 16 14 10 13 13 27 24 21 17 15 16 15 16 16 16 14 12 12 12 11 8 8 8 9 10 8 9 10 9 9 10 9 8
38 36 44 35 32 29 28 25 26 24 17 16 15 17 15 16 23 24 22 19 18 18 18 18 18 19 18 15 13 12 11 10 7 9 8 9 10 7 8 9 7 8 9 8
38 41 39 40 36 32 30 31 29 27 25 23 21 15 18 30 26 27 21 17 19 18 18 18 18 18 18 17 15 14 12 11 10 8 9 9 8 9 8 8 7 6 8 9
39 39 39 41 38 36 37 33 31 27 25 31 23 16 14 24 31 29 23 18 17 19 16 14 15 15 17 18 17 16 15 13 11 10 8 7 8 7 6 6 5 6 7 7
40 39 40 38 43 38 35 34 33 29 27 27 23 24 20 22 27 30 24 16 16 15 17 18 17 14 14 16 18 17 16 15 14 13 12 9 8 8 8 6 6 6 6 7
40 38 41 41 39 40 37 36 35 31 23 16 22 18 22 21 11 6 11 15 12 16 16 17 14 16 14 15 17 17 16 15 14 14 13 12 10 9 11 10 9 7 7 8
41 40 43 43 41 39 39 37 31 30 22 21 29 23 17 12 10 12 11 12 7 13 20 19 17 15 21 20 20 17 14 12 14 14 14 13 12 11 12 13 11 10 10 9
44 40 42 43 40 41 41 43 37 30 24 21 26 29 20 22 20 16 12 12 15 19 18 19 22 21 24 23 27 19 19 15 12 14 14 14 15 14 13 14 15 13 10 10
44 42 43 40 42 41 42 40 39 40 26 23 20 23 21 26 23 21 15 15 19 21 21 22 24 27 29 26 29 25 20 19 15 13 15 16 17 17 16 16 15 16 14 13
43 41 40 39 41 42 42 38 42 31 30 22 22 18 30 26 24 24 21 20 24 26 27 28 29 30 30 29 26 22 21 21 19 14 15 17 16 18 19 19 17 16 16 15
40 35 28 41 40 40 42 39 38 36 29 32 22 22 26 26 23 26 26 25 23 29 26 23 26 33 33 34 31 30 22 29 27 16 16 19 14 19 20 22 22 21 19 18
32 35 28 34 41 38 37 38 39 29 27 28 28 23 27 21 24 24 27 24 28 23 23 23 24 25 27 26 36 32 27 22 17 20 22 18 19 22 23 24 27 26 24 24
30 30 29 25 31 30 41 38 38 39 27 24 25 24 29 25 21 25 27 22 27 28 25 24 30 28 27 28 29 33 29 25 26 34 24 28 30 27 27 27 29 30 31 28
28 30 28 34 29 36 36 35 35 35 29 24 22 27 32 31 24 25 27 27 22 23 27 26 28 27 23 22 25 26 21 31 25 20 23 26 25 31 33 33 31 33 34 32
31 29 32 30 34 33 32 31 32 34 35 35 35 30 28 30 29 27 28 29 28 26 25 23 22 23 20 20 22 22 25 25 21 20 26 26 35 38 28 30 32 32 33 33
31 31 32 32 32 30 30 34 34 35 33 33 29 36 35 33 30 30 31 30 31 32 31 28 26 22 19 23 27 28 28 29 27 26 23 24 23 18 10 16 23 24 34 33
18 26 36 26 35 33 32 34 35 36 35 36 35 34 32 31 31 31 32 33 33 34 35 36 35 32 30 29 28 28 28 25 26 28 25 20 20 28 20 13 15 16 12 20
17 16 21 21 25 34 30 37 34 33 37 37 36 35 35 33 32 32 30 32 35 36 36 37 36 36 36 35 36 33 30 26 25 22 21 19 15 17 15 15 17 17 14 16
23 21 18 16 20 20 30 36 33 30 35 36 35 35 35 35 33 38 37 36 37 37 36 35 37 38 38 36 37 38 37 34 30 28 27 24 20 19 19 20 22 20 18 15
26 27 24 20 20 25 22 25 30 30 36 35 35 36 37 38 38 37 39 40 40 39 38 37 36 37 39 40 39 37 35 36 35 35 33 31 26 24 22 18 18 20 18 18
20 23 21 22 24 25 21 22 26 29 29 29 32 37 39 38 36 39 41 41 42 43 41 41 40 40 40 42 44 44 42 38 36 34 34 35 34 31 28 25 26 25 26 26
13 17 20 21 22 21 23 24 24 27 33 34 32 32 33 36 39 40 38 38 40 42 41 41 42 40 40 42 46 47 47 46 47 47 44 38 38 36 34 32 33 34 34 33
8 11 12 14 15 14 15 16 17 18 19 22 24 26 27 28 32 36 38 38 39 40 41 40 38 37 41 41 41 42 47 48 45 44 44 47 47 48 46 43 40 40 40 40
7 9 10 11 12 12 11 11 11 13 16 19 23 25 26 27 29 31 35 37 39 41 42 42 42 40 40 40 39 40 43 43 44 46 51 53 53 50 51 49 45 44 46 45
7 10 11 13 12 14 13 13 13 13 12 13 15 18 22 25 28 30 32 34 37 39 40 41 43 41 40 40 42 42 42 45 50 52 55 54 53 56 56 55 51 51 51 51
Wind_Direction
205 209 207 208 210 214 200 179 191 210 217 235 213 202 192 192 191 184 183 177 177 181 182 184 178 185 186 179 175 160 149 143 137 136 141 138 131 124 133 139 133 128 125 127
206 210 209 209 210 214 216 207 214 224 237 230 241 234 242 195 189 180 185 182 175 173 182 188 190 188 192 188 181 180 170 170 158 146 139 149 142 133 133 138 143 143 141 137
208 210 213 212 211 213 218 226 227 233 221 229 224 250 275 208 174 187 188 188 178 177 189 188 193 192 194 195 188 192 187 185 176 162 161 153 161 164 140 144 147 152 158 168
211 210 213 216 212 212 218 223 228 227 224 226 227 236 253 193 187 178 177 171 182 179 185 192 190 195 193 196 197 198 200 199 192 184 176 177 167 165 160 154 165 172 158 170
217 214 210 214 215 212 212 216 224 228 230 235 243 241 237 189 179 177 180 179 173 180 183 193 201 199 199 199 197 202 206 202 205 201 191 190 193 196 167 150 168 194 192 176
216 214 215 212 216 212 219 218 226 223 231 239 245 254 249 244 193 165 167 172 182 177 183 198 202 195 203 209 206 205 205 205 206 209 205 203 206 212 202 193 192 209 212 209
214 213 216 215 213 215 212 219 223 225 222 230 237 239 254 202 209 220 183 190 183 215 203 208 201 208 207 214 214 210 210 212 212 214 216 210 213 218 212 209 204 213 213 223
216 212 216 215 213 215 217 218 221 229 223 233 239 233 229 233 201 223 240 246 226 222 210 208 201 211 201 208 205 208 204 218 225 223 221 225 223 226 223 224 223 221 227 232
217 212 214 219 216 213 213 217 217 211 213 220 255 235 220 221 214 224 240 248 230 231 230 218 220 209 206 216 220 214 219 228 223 226 225 229 228 226 232 232 234 233 230 239
217 212 218 216 218 214 215 215 217 219 214 222 234 239 216 217 226 232 230 241 232 226 223 226 224 215 219 226 243 237 218 220 218 218 225 230 234 229 232 238 238 236 233 235
218 214 224 215 217 219 219 216 219 221 222 226 231 260 224 223 222 230 224 221 221 222 225 229 227 223 225 226 227 237 241 239 226 222 228 226 236 234 232 234 240 243 235 232
217 210 224 218 215 219 220 218 223 224 219 218 208 233 250 221 215 217 220 217 220 218 221 231 234 233 233 234 230 225 243 223 234 226 243 237 242 249 243 241 236 234 236 228
213 212 210 217 217 213 219 221 219 221 216 237 225 231 244 217 216 209 214 218 211 225 231 242 248 241 238 244 234 233 237 255 226 239 245 238 259 253 246 248 245 239 233 237
204 206 195 229 229 218 217 222 222 225 224 219 231 217 241 233 211 210 213 217 219 220 233 243 247 258 258 261 234 227 230 232 249 244 239 248 243 252 252 265 245 243 239 236
195 202 197 202 208 219 219 218 220 224 212 215 229 224 229 232 220 211 216 222 222 223 230 237 249 257 259 269 269 242 243 236 246 270 247 267 243 261 258 253 253 243 239 239
189 202 213 214 218 222 221 218 216 219 225 223 215 226 236 237 237 230 219 222 220 221 227 227 236 248 251 248 254 262 267 272 275 280 279 266 257 262 250 246 242 241 240 241
191 200 195 214 217 219 223 221 219 221 222 226 232 236 240 243 243 243 237 230 230 227 229 233 233 235 239 247 252 256 264 269 273 274 275 283 279 229 222 242 236 252 249 247
188 194 215 214 214 218 219 228 226 229 229 231 232 238 239 238 241 240 241 245 241 235 235 237 240 243 246 247 250 258 258 267 266 268 265 269 268 268 279 262 272 271 276 253
207 200 213 226 221 218 216 227 227 230 237 238 239 240 241 239 238 241 239 238 241 243 240 240 242 242 246 249 249 251 252 252 253 266 265 258 257 258 255 258 267 273 258 261
206 217 216 209 201 221 228 227 230 230 239 237 240 242 244 243 243 240 241 243 244 247 247 244 242 242 244 246 247 247 249 250 254 252 258 261 257 245 238 238 236 236 243 240
217 211 212 222 221 223 227 229 232 232 237 239 241 242 242 242 248 247 246 246 248 247 247 249 249 245 242 240 242 244 249 251 248 251 251 252 248 242 238 232 227 226 236 246
209 216 227 232 232 233 230 232 231 231 235 244 244 245 246 246 247 249 250 252 251 252 251 248 246 248 248 247 244 242 241 239 245 244 251 247 240 233 232 236 245 241 248 255
204 215 224 228 233 236 240 244 244 244 244 247 248 247 246 246 248 250 251 252 253 255 257 258 255 248 247 248 247 246 246 247 244 245 249 251 234 231 247 257 256 257 256 257
198 203 211 217 221 221 225 229 230 232 235 239 243 244 244 246 245 247 248 248 249 251 255 257 256 256 253 251 252 255 250 248 246 246 244 246 248 247 252 262 257 256 257 257
207 213 216 217 219 219 217 222 228 236 238 238 238 239 241 242 244 246 248 250 250 249 250 252 253 251 252 253 250 250 250 250 249 248 245 238 240 246 255 254 252 255 253 257
230 234 229 229 224 224 219 222 228 241 246 248 250 251 250 248 247 247 248 248 249 252 255 256 257 256 254 252 248 247 251 251 248 246 248 252 253 254 254 257 253 254 253 254